STARLINK-36421, 67464

Orbit data source: Space-Track

STARLINK-36421, 67464 is a payload satellite owned by SpaceX/Seattle (US) in LEO that was launched on Wed, 14 Jan 2026 UTC via an FALCON 9 launch vehicle from the Air Force Eastern Test Range (AFETR). Payload-class satellites include a variety of spacecraft equipped with specific instruments for various scientific and technological missions. These include communications satellites like Starlink; space stations such as the ISS; scientific satellites like the Hubble; Earth observation satellites from companies like Planet Labs, Umbra, and HawkEye 360; GPS; miniature CubeSats for education and research; and military/defense satellites.

Loading next visibility...
Identifier
67464, 2026-008V
Orbit
LEO
Country
Flag of USUS
Related business
Manufacturer
SpaceX/Seattle
Mission
Operational Commercial Communications
Bus & Motor
STARLINK V2MO, Unknown motor
Mass
575 kg wet, ~530 kg dry
Launch date (UTC)
2026-01-14 (5 months ago)
Launch vehicle
FALCON 9
Launch site
Air Force Eastern Test Range (AFETR)
Object type
Payload
Rocket body
Debris
Shape & HBR
Box + 2 Pan, 17.7 m
Radar Cross Section
36.964 m², Large (>1 m²)

Expand to show TLE details & history
Last TLE update: 9 hours ago

TLE from 9 hours ago
0 STARLINK-36421
1 67464U 26008V   26171.46117431  .00023447  00000-0  85839-3 0  9993
2 67464  43.0039 344.4960 0001068 257.6762 102.3970 15.27598168 25290
Epoch: 2026-06-20T11:04Z
TLE epoch observation values (Epoch: 2026-06-20T11:04:05.460Z)
Latitude
-0.00003°
Longitude
-90.20225°
Altitude
482.928 km
Speed
7.626 km/s
True Right ascension
22h 57m 59s
True Declination
0° 00' 00"
Sunlit
Object was in daylight at epoch
Visualization orbit readout
Latitude
Unknown
Longitude
Unknown
Altitude
Unknown
Speed
Unknown
Apparent Right ascension
Unknown
Apparent Declination
Unknown
Sunlit
N/A
Visualization observer readout
Local Sidereal Time
07:19:31
Azimuth
Unknown
Elevation
Unknown
Doppler factor
Unknown
Orbital elements
Apogee altitude
485.672 km
Perigee altitude
484.206 km
Semi-major axis
6,863.076 km
Eccentricity
0.00011
Inclination
43.0039°
RAAN
344.496°
Arg. of periapsis
257.6762°
True anomaly
102.40895°
Mean anomaly
102.397°
Eccentric anomaly
102.40298°
Mean motion
3.81738 °/min
Orbital period
94.31 mins
BSTAR
0.00085839
Loading maneuver chart data...
Computing Atmospheric mass density...
Loading historical data...
Loading historical data...
Loading historical data...
Loading historical data...
Loading historical data...
Loading historical data...
Loading historical data...

Documentation

Showing up to 5 results
|